Wind_Speed
6 1 5 2 2 1 2 4 2 7 3 2 5 2 5 5 1 3 7 4 18 21 18 17 15 15 17 18 18 18 17 16 16 15 13 12 11 9 9 9 9 10 11 9 10 11 13 15 16
1 3 1 1 0 5 3 1 6 8 12 13 10 6 4 4 3 8 11 11 20 21 18 17 16 15 18 20 20 19 18 16 14 13 13 12 11 10 9 10 10 11 11 10 10 13 15 16 16
1 2 1 2 3 3 4 4 18 15 7 4 5 7 3 3 6 10 8 18 20 20 19 18 17 16 17 19 20 18 17 15 14 13 12 10 10 9 9 10 9 10 12 12 13 15 15 16 15
2 1 2 2 4 2 2 12 12 12 8 8 11 7 5 6 5 6 16 18 19 18 18 18 16 16 16 16 17 16 15 14 14 11 11 11 9 8 8 9 9 9 10 12 14 16 16 15 13
3 1 1 1 3 3 2 12 10 4 7 5 3 5 4 5 8 18 17 16 17 16 16 17 15 14 14 14 14 14 13 12 11 10 9 9 8 8 7 8 8 7 9 11 12 14 14 11 9
1 0 2 5 4 4 2 7 6 6 10 10 9 5 4 6 11 13 15 15 15 17 17 15 14 13 12 12 12 12 11 10 9 7 7 7 7 6 6 6 6 6 7 8 9 10 9 7 5
2 2 2 3 6 5 4 6 12 13 13 8 7 5 4 7 11 12 13 14 14 15 17 14 12 12 11 10 10 10 9 8 8 7 5 5 5 5 5 5 5 5 5 5 6 7 7 5 5
3 2 4 3 7 4 5 3 8 9 8 4 3 6 8 9 13 14 14 14 14 14 13 13 12 10 10 10 8 8 7 6 5 5 4 3 3 3 3 3 3 4 4 4 5 5 5 6 6
2 1 4 4 8 6 6 8 5 8 10 7 5 4 13 18 17 15 14 13 12 11 11 10 10 9 10 9 8 6 6 5 4 3 2 1 0 1 1 0 1 2 3 3 4 5 6 7 9
2 2 6 3 4 5 4 6 6 6 11 10 14 15 18 19 17 16 14 10 8 9 10 10 10 9 9 8 7 6 4 3 1 0 1 2 2 2 2 3 3 4 4 4 5 6 8 9 9
4 4 3 2 5 8 6 5 4 15 9 5 12 12 14 18 15 15 12 9 9 9 8 10 9 8 9 8 7 5 3 1 1 2 3 4 4 5 5 4 4 6 7 7 8 8 9 10 11
4 2 3 4 4 7 6 6 8 11 7 10 10 9 14 13 13 12 11 9 8 8 8 8 8 9 10 7 6 4 1 2 4 5 5 6 6 7 7 7 7 8 7 9 9 10 12 14 15
3 3 7 11 16 15 17 13 11 13 11 12 13 13 13 13 13 12 11 9 8 8 7 10 9 9 9 5 4 2 2 2 2 1 1 3 4 4 5 6 7 8 10 12 13 13 14 16 16
3 11 12 8 11 9 16 9 4 5 10 13 14 14 12 13 11 12 11 10 8 8 9 9 9 9 8 9 10 8 7 5 3 3 3 0 1 3 5 5 5 6 8 10 12 13 15 16 17
12 9 11 7 4 8 12 8 10 8 10 14 14 13 12 13 13 13 10 10 8 8 10 10 11 12 13 13 12 11 10 9 7 8 8 6 3 2 4 4 6 8 7 9 9 10 12 14 14
4 5 8 5 6 2 4 5 6 9 12 13 13 12 12 12 14 12 11 11 9 10 12 13 13 15 16 16 16 16 15 15 14 12 11 10 10 7 6 6 7 8 8 9 9 10 12 12 14
6 11 9 8 6 6 1 8 11 11 11 13 12 12 11 12 14 13 12 12 12 12 15 20 21 20 20 21 22 20 18 17 16 15 13 13 12 12 10 11 11 10 10 10 11 9 11 11 12
12 5 6 7 7 4 5 10 16 12 13 12 12 11 11 11 10 11 13 14 14 14 15 19 21 21 20 23 23 23 23 21 20 19 18 17 17 16 14 15 14 13 13 15 15 14 12 9 16
9 9 13 3 4 4 5 16 17 14 12 12 11 11 11 11 10 11 13 15 17 17 17 18 21 21 21 18 20 15 16 18 22 19 19 20 19 18 17 16 16 15 15 16 17 14 12 12 21
6 13 18 6 3 4 12 15 13 13 13 14 14 12 12 11 10 11 13 15 17 18 19 19 18 16 18 16 16 14 16 17 17 16 19 20 19 19 18 18 17 17 14 17 18 17 14 11 18
12 19 15 13 9 8 17 7 12 12 12 11 11 10 11 13 13 11 13 14 16 18 19 21 20 21 21 20 20 20 18 14 15 16 16 17 18 19 19 19 17 17 16 16 16 16 16 13 11
18 8 12 19 15 9 10 8 15 17 17 16 15 14 14 13 12 12 15 15 16 17 19 21 22 23 22 20 19 17 16 16 14 14 13 14 17 18 18 18 17 16 14 16 15 15 15 13 13
11 10 16 13 8 5 9 6 4 19 17 17 20 17 16 14 14 14 17 18 18 17 19 21 24 23 22 21 20 18 19 16 13 12 12 13 15 17 17 16 15 15 14 14 14 15 16 14 10
15 15 14 7 4 5 15 12 13 15 25 25 20 20 19 17 15 17 17 18 18 17 19 19 21 21 21 21 21 20 18 15 14 14 13 13 12 14 16 15 14 14 14 14 13 13 14 14 11
14 17 5 6 6 15 16 10 16 17 24 26 26 24 22 18 17 16 19 19 19 18 18 18 19 18 18 20 20 18 17 16 15 13 13 11 12 13 14 14 15 15 14 14 13 14 13 14 13
24 20 7 14 14 15 6 11 9 17 20 21 20 23 22 20 17 17 22 21 21 20 18 18 17 17 16 17 17 15 14 14 14 14 12 11 12 13 13 14 14 15 15 14 14 13 14 15 15
15 12 16 6 1 7 10 15 6 4 14 18 22 25 25 23 21 20 23 22 22 20 20 19 18 16 15 15 15 15 15 14 13 12 12 13 13 12 13 13 13 13 14 15 15 14 15 15 14
17 19 10 3 10 16 14 21 12 15 19 22 22 25 24 22 22 20 24 24 22 20 20 21 19 18 17 15 14 14 13 13 12 13 14 14 13 13 13 12 12 11 12 15 15 14 15 15 15
6 13 8 7 5 13 16 14 10 17 22 27 28 27 27 26 24 22 26 25 24 21 20 20 19 20 17 15 15 14 13 13 14 15 14 13 13 12 12 11 11 12 14 16 16 16 16 16 16
7 13 21 10 19 12 10 14 2 17 24 26 28 27 26 26 24 23 28 27 26 24 22 22 20 20 18 16 15 14 13 13 15 14 13 13 12 10 10 13 13 12 14 16 16 17 17 16 17
Wind_Direction
331 3 141 161 221 101 94 97 134 125 116 91 103 183 130 49 37 100 139 140 151 155 154 156 154 145 134 130 126 124 122 119 117 116 118 118 116 110 106 102 102 110 109 111 104 103 105 107 108
316 129 119 121 130 127 112 52 149 106 122 112 95 98 83 80 69 118 137 153 154 155 155 155 153 148 137 133 130 127 124 121 115 112 112 111 110 107 111 104 99 105 110 110 110 111 116 114 112
151 160 264 87 107 130 120 116 132 120 143 122 108 53 43 50 96 134 145 152 152 154 157 158 154 149 142 137 134 132 127 120 113 108 102 103 107 111 111 104 95 101 108 109 114 120 118 115 114
233 159 100 233 138 109 165 150 139 133 88 70 104 75 85 19 148 136 142 148 151 153 157 160 158 151 145 139 137 135 132 127 119 110 104 103 101 101 104 107 94 100 101 115 121 124 125 123 120
31 55 107 146 129 124 224 152 150 113 101 83 123 107 67 34 99 133 140 146 152 155 156 160 162 155 146 139 137 138 136 132 128 123 112 98 94 99 100 100 105 112 111 118 122 124 128 132 132
86 102 152 192 161 127 116 154 129 102 118 123 95 102 79 108 120 131 138 143 152 155 157 161 165 160 149 142 137 138 138 137 132 127 118 110 100 93 97 104 110 112 117 127 132 134 139 149 152
132 124 201 175 154 146 145 132 131 127 119 77 109 91 102 102 133 125 122 136 144 155 159 162 162 165 156 149 142 139 140 140 141 137 129 116 108 103 100 105 109 114 121 135 149 163 176 187 209
112 98 146 191 178 148 153 109 109 109 87 73 25 140 151 135 127 120 116 128 141 148 160 166 163 163 163 158 152 146 141 140 140 141 141 133 122 114 109 107 121 133 147 167 185 199 218 234 249
152 121 191 193 175 140 148 139 62 65 84 57 25 80 118 130 128 115 111 115 127 146 164 166 161 167 170 167 163 161 157 156 156 153 159 165 149 344 339 204 162 175 187 200 219 233 248 260 266
163 181 210 175 159 147 93 101 99 95 99 82 87 94 119 125 132 129 129 128 129 150 166 169 175 180 177 174 178 178 181 182 185 255 316 324 322 315 308 300 295 288 272 259 259 262 264 267 270
179 200 182 136 138 130 107 70 41 119 71 48 129 118 112 111 110 114 119 129 151 166 169 178 187 189 183 187 187 191 203 235 300 305 310 323 329 328 322 315 314 305 299 295 293 287 282 279 282
210 158 142 125 124 106 96 92 74 54 93 98 103 109 107 95 95 102 105 104 112 136 166 172 175 182 181 188 189 199 232 345 345 340 334 331 333 335 330 324 314 309 307 301 299 297 297 297 296
216 119 58 100 96 88 96 82 100 84 93 100 101 94 90 93 93 91 95 92 98 98 128 160 167 173 174 169 176 167 85 52 48 74 317 321 323 312 314 318 322 318 312 307 303 298 297 295 294
103 102 117 94 100 121 111 102 82 83 111 103 100 91 88 89 93 96 88 85 83 90 101 131 154 169 164 170 163 152 161 151 151 106 73 62 307 313 312 330 326 321 308 298 293 290 292 293 294
140 103 110 121 119 123 116 47 92 121 120 104 96 94 88 83 84 80 85 86 91 92 102 105 112 143 163 138 139 126 119 121 107 78 62 57 42 352 347 339 339 331 327 313 312 305 294 287 289
142 127 156 161 160 75 243 144 148 136 129 109 104 98 90 79 78 79 83 88 89 102 113 114 115 129 131 128 119 116 114 109 100 87 74 70 65 61 48 34 23 10 359 338 334 333 316 305 301
193 191 171 164 194 137 196 140 170 151 137 125 119 112 104 98 85 78 81 87 87 96 112 118 116 112 116 117 112 110 107 98 88 84 71 63 61 57 57 46 34 30 19 15 2 354 344 334 323
170 148 152 159 171 105 104 134 154 157 147 138 133 126 117 104 86 85 85 86 89 97 106 115 120 119 118 114 108 100 98 92 85 74 68 64 61 56 54 49 39 37 32 21 19 11 4 353 339
217 157 164 108 131 112 157 147 162 160 154 151 149 144 130 111 103 93 88 90 93 92 108 112 119 118 119 109 104 91 88 78 79 69 69 65 61 58 55 52 46 42 38 29 23 10 7 3 355
275 183 178 116 62 97 149 147 160 169 172 171 164 158 145 134 120 104 92 89 88 92 95 104 111 120 115 108 107 101 95 83 82 73 66 63 59 57 52 52 47 43 39 35 28 24 12 9 15
226 210 176 172 113 83 131 146 177 189 181 177 177 167 161 153 143 131 117 108 103 96 95 99 106 109 108 112 108 103 94 90 79 68 64 59 57 56 53 50 47 43 40 35 31 26 23 9 13
221 221 179 148 169 188 218 207 206 191 193 191 183 184 175 167 153 143 132 119 114 111 109 104 102 104 111 113 107 103 99 92 84 78 71 62 56 53 51 49 47 45 41 36 30 24 23 17 11
228 160 169 166 163 166 221 239 137 187 203 196 196 186 181 177 166 156 147 136 127 121 113 108 105 104 104 105 105 102 99 94 92 87 81 67 56 49 46 43 42 40 38 33 31 28 27 26 19
131 112 113 115 126 197 203 228 198 193 200 205 190 186 182 176 171 160 149 139 134 131 123 118 110 108 107 105 103 100 100 101 93 79 69 60 52 45 41 41 40 39 37 33 31 31 28 24 19
182 151 142 171 195 224 180 199 235 200 200 197 185 183 179 176 171 165 160 154 149 144 137 129 124 119 114 106 100 97 96 93 84 80 71 65 56 47 40 42 41 40 38 39 38 32 26 16 8
189 186 180 205 207 214 115 232 243 215 214 199 180 173 172 177 174 175 170 162 157 154 150 141 134 126 119 109 104 101 98 90 84 75 71 68 67 58 52 49 46 43 41 37 31 24 16 6 358
188 208 198 210 293 208 207 233 248 181 190 176 171 170 179 177 177 178 172 167 162 160 159 151 142 135 129 119 111 98 88 87 84 76 77 72 69 62 56 52 50 46 42 35 21 16 11 4 356
191 197 183 184 195 217 214 228 228 169 178 175 174 181 177 176 178 178 174 170 166 161 159 156 152 148 140 128 115 107 101 95 86 83 79 73 70 65 59 55 55 52 44 30 23 18 7 4 360
169 195 214 227 206 222 235 242 189 193 181 184 189 181 176 175 178 177 173 171 167 162 160 159 156 151 144 134 127 118 111 96 90 83 77 74 72 68 64 61 59 52 39 25 25 19 9 7 1
227 210 196 195 207 227 243 234 339 213 188 184 188 182 177 175 172 174 170 169 169 167 164 164 160 155 150 142 131 118 107 96 89 85 82 76 74 74 69 57 58 52 35 29 23 18 13 10 2
Height
777 775 775 776 781 777 793 789 779 787 788 785 785 790 793 802 802 812 810 811 813 816 820 824 828 828 829 830 831 832 833 834 835 836 837 838 839 839 839 840 840 840 840 841 841 841 842 843 843
776 775 775 774 781 788 794 783 787 782 786 784 786 792 795 806 805 809 812 813 816 818 822 824 828 830 830 832 833 834 836 837 838 839 840 840 841 841 842 843 843 842 842 842 843 843 844 844 846
776 775 774 778 791 789 791 785 782 781 783 782 790 792 797 807 810 811 812 814 817 820 823 826 828 831 832 833 834 836 838 839 840 841 841 842 842 843 843 844 845 844 844 844 844 846 847 848 849
775 775 778 780 787 791 785 780 781 783 782 782 789 802 803 811 811 812 815 818 820 822 825 828 831 833 834 835 835 836 838 839 841 843 844 844 844 845 845 845 845 845 846 846 847 847 849 850 852
775 776 783 787 790 788 783 775 778 783 787 791 790 806 809 814 814 814 817 820 823 825 828 831 834 836 836 837 838 839 839 840 841 843 844 846 846 846 847 846 846 846 847 848 849 850 851 852 853
777 781 787 787 790 784 782 777 777 783 785 790 795 804 814 817 818 819 820 822 825 826 829 832 835 838 838 839 840 841 842 843 844 845 845 846 847 847 848 848 848 848 849 849 850 851 852 853 853
779 781 789 790 789 787 782 776 778 782 785 792 793 807 815 817 820 821 822 825 827 829 831 834 836 838 840 841 842 843 844 845 845 846 847 848 848 848 848 849 849 849 850 851 851 852 853 853 854
779 779 793 791 789 788 780 779 780 781 792 792 796 807 815 818 820 822 825 827 829 831 834 836 838 839 841 843 844 845 845 846 847 848 848 848 849 849 850 850 850 850 851 852 853 853 853 853 854
779 785 789 786 789 785 780 781 787 790 794 803 805 806 813 818 821 824 827 829 831 834 836 838 839 841 842 844 845 846 847 847 848 848 849 850 850 850 850 850 850 851 851 851 852 853 853 853 853
778 787 782 778 779 780 787 787 788 796 801 811 811 816 818 819 822 824 828 831 833 835 837 838 839 841 843 844 845 847 848 849 849 850 850 851 851 851 851 851 851 851 851 852 852 852 852 852 852
781 779 778 779 777 776 787 795 796 796 812 816 816 820 821 821 823 825 828 831 832 835 836 837 839 841 842 844 845 847 848 849 850 850 850 850 851 851 851 850 851 851 851 852 852 851 851 851 851
779 776 776 779 780 780 792 799 809 809 821 820 822 823 823 823 825 826 829 831 833 834 835 837 838 840 842 844 845 847 848 849 849 850 850 850 850 850 850 850 850 850 850 850 850 850 849 849 849
776 778 783 784 785 792 795 808 814 822 823 824 825 826 826 828 829 829 830 832 833 834 834 835 837 839 841 843 845 846 848 849 849 848 848 848 848 848 848 848 849 849 848 848 848 848 847 846 846
775 781 788 788 790 793 799 812 811 828 827 827 827 830 831 831 832 831 831 833 834 834 834 835 836 838 841 841 842 844 845 847 847 847 847 847 847 847 846 847 847 847 846 846 845 844 843 843 842
777 790 788 790 793 800 793 815 829 830 829 830 830 833 834 835 835 833 833 833 834 835 835 836 836 837 838 840 841 843 845 845 847 848 848 846 846 846 846 845 845 844 843 843 842 841 840 838 837
779 783 790 792 792 799 796 826 831 831 831 833 833 835 836 838 838 837 836 836 836 835 835 836 837 836 838 840 841 843 845 845 846 847 848 847 846 846 845 844 843 843 842 841 840 839 838 837 835
777 777 786 794 791 795 794 822 828 830 833 835 836 837 839 840 841 841 839 838 837 837 837 836 837 839 840 842 842 844 845 846 848 848 848 849 847 847 845 845 844 843 842 840 839 837 837 835 832
772 786 788 790 794 794 804 814 824 829 832 837 839 840 841 842 843 844 841 840 839 839 839 839 839 840 843 843 844 846 846 849 849 850 851 850 849 848 847 846 845 843 843 841 838 838 836 836 832
763 772 781 796 796 798 805 816 821 827 833 837 840 841 842 843 846 845 843 842 841 841 841 841 843 844 844 846 847 849 852 852 851 853 853 852 851 850 849 847 846 845 844 843 840 840 838 836 831
766 767 772 796 798 801 812 822 826 828 831 833 835 840 842 844 846 847 845 844 844 843 843 843 845 846 845 848 849 852 852 855 855 857 856 854 854 853 851 849 848 847 846 844 842 840 839 837 836
765 763 775 777 802 809 811 829 828 828 830 833 837 840 843 843 846 847 848 848 847 847 846 846 847 847 847 850 851 852 853 858 858 858 859 859 858 855 853 852 850 849 848 847 846 843 842 840 838
768 762 770 784 787 796 800 800 821 819 824 829 832 836 839 843 846 848 849 849 850 850 850 849 850 850 851 852 852 855 857 859 860 861 862 862 859 857 855 853 852 850 850 849 848 846 844 842 841
759 758 769 780 785 796 811 802 794 812 819 822 823 830 835 839 842 845 848 850 851 853 852 853 852 854 855 855 856 858 859 861 863 864 864 863 861 859 857 855 854 852 852 851 850 848 847 846 845
757 764 774 783 796 813 787 794 771 796 798 805 814 823 828 836 841 845 847 848 851 854 854 856 855 858 859 859 859 859 860 863 864 863 862 862 862 861 859 858 856 854 853 852 851 850 849 848 847
753 762 798 802 806 773 767 797 763 774 777 784 797 810 821 830 837 841 845 846 850 852 855 857 859 861 862 861 860 860 861 862 862 862 863 864 863 862 861 860 858 856 854 853 852 851 850 848 846
747 747 766 775 775 767 783 784 761 756 767 775 790 803 816 826 832 839 842 844 848 851 854 856 859 860 862 861 862 864 863 863 863 863 863 864 862 861 861 861 859 858 856 855 854 852 851 848 846
748 757 735 755 766 772 769 761 765 764 769 776 786 797 808 818 826 833 838 842 846 850 853 855 858 861 863 863 864 864 863 863 864 864 864 863 862 862 862 861 860 859 858 856 855 853 851 849 847
734 728 757 758 770 769 752 750 746 760 768 775 786 792 800 811 820 828 833 838 843 848 851 854 857 861 863 864 864 864 865 866 865 864 864 863 863 862 863 863 862 861 859 857 855 853 851 849 846
738 742 741 739 748 749 747 734 721 743 751 759 764 774 786 797 809 819 826 834 840 845 849 853 857 859 862 863 865 865 866 865 864 863 863 863 864 864 865 864 862 861 860 857 854 853 851 848 845
729 728 727 742 747 740 738 725 732 720 729 739 749 760 776 787 799 811 820 829 837 842 847 852 855 857 860 862 863 864 865 863 862 862 863 863 864 865 865 863 861 861 860 857 855 852 850 846 844